Location: Sihaung
(22.8641°N, 94.0549°E)
Time: 02:58:35
(UTC+00:00)

CSL-04 Debris - Pass Details

Date: 03 March 2021
Orbit: 826 x 848 km, 98.9° (Epoch: 13 April)

Event Time Altitude Azimuth Distance (km) Brightness Sun altitude
Rises 13:10:51 0° 169° (S) 3,359 7.2 -19.9°
Reaches altitude 10° 13:13:11 10° 170° (S) 2,430 6.5 -20.4°
Maximum altitude 13:18:35 81° 257° (WSW) 849 4.2 -21.6°
Drops below altitude 10° 13:24:02 10° 345° (NNW) 2,453 6.8 -22.9°
Sets 13:26:24 0° 346° (NNW) 3,393 7.6 -23.4°
